Time,TemperatureF,DewpointF,PressureIn,WindDirection,WindDirectionDegrees,WindSpeedMPH,WindSpeedGustMPH,Humidity,HourlyPrecipIn,Conditions,Clouds,dailyrainin,SoftwareType,DateUTC
2013-07-02 00:11:00,67.0,56.0,-100.00,North,-999,0.0,0.0,67,-99.99,,,-99.99,,2013-07-02 07:11:00,
2013-07-02 00:22:00,66.0,55.0,-100.00,North,-999,0.0,0.0,69,-99.99,,,-99.99,,2013-07-02 07:22:00,
2013-07-02 00:33:00,66.0,55.0,-100.00,North,-999,0.0,0.0,69,-99.99,,,-99.99,,2013-07-02 07:33:00,
2013-07-02 00:44:00,66.0,55.0,-100.00,North,-999,0.0,0.0,69,-99.99,,,-99.99,,2013-07-02 07:44:00,
2013-07-02 00:53:00,65.0,54.0,-100.00,North,-999,0.0,0.0,69,-99.99,,,-99.99,,2013-07-02 07:53:00,
2013-07-02 01:12:00,64.0,55.0,-100.00,North,-999,0.0,0.0,71,-99.99,,,-99.99,,2013-07-02 08:12:00,
2013-07-02 01:22:00,64.0,54.0,-100.00,North,-999,0.0,0.0,71,-99.99,,,-99.99,,2013-07-02 08:22:00,
2013-07-02 01:44:00,63.0,54.0,-100.00,North,-999,0.0,0.0,72,-99.99,,,-99.99,,2013-07-02 08:44:00,
2013-07-02 01:53:00,63.0,54.0,-100.00,North,-999,0.0,0.0,74,-99.99,,,-99.99,,2013-07-02 08:53:00,
2013-07-02 02:11:00,62.0,55.0,-100.00,North,-999,0.0,0.0,76,-99.99,,,-99.99,,2013-07-02 09:11:00,
2013-07-02 02:43:00,61.0,55.0,-100.00,North,-999,0.0,0.0,79,-99.99,,,-99.99,,2013-07-02 09:43:00,
2013-07-02 02:52:00,61.0,55.0,-100.00,North,-999,0.0,0.0,80,-99.99,,,-99.99,,2013-07-02 09:52:00,
2013-07-02 03:01:00,61.0,55.0,-100.00,North,-999,0.0,0.0,82,-99.99,,,-99.99,,2013-07-02 10:01:00,
2013-07-02 03:11:00,61.0,55.0,-100.00,North,-999,0.0,0.0,82,-99.99,,,-99.99,,2013-07-02 10:11:00,
2013-07-02 03:22:00,60.0,55.0,-100.00,North,-999,0.0,0.0,83,-99.99,,,-99.99,,2013-07-02 10:22:00,
2013-07-02 03:43:00,60.0,55.0,-100.00,North,-999,0.0,0.0,84,-99.99,,,-99.99,,2013-07-02 10:43:00,
2013-07-02 03:52:00,60.0,55.0,-100.00,North,-999,0.0,0.0,85,-99.99,,,-99.99,,2013-07-02 10:52:00,
2013-07-02 04:11:00,60.0,56.0,-100.00,North,-999,0.0,0.0,87,-99.99,,,-99.99,,2013-07-02 11:11:00,
2013-07-02 04:22:00,59.0,56.0,-100.00,North,-999,0.0,0.0,87,-99.99,,,-99.99,,2013-07-02 11:22:00,
2013-07-02 04:33:00,59.0,56.0,-100.00,North,-999,0.0,0.0,88,-99.99,,,-99.99,,2013-07-02 11:33:00,
2013-07-02 04:42:00,59.0,56.0,-100.00,North,-999,0.0,0.0,88,-99.99,,,-99.99,,2013-07-02 11:42:00,
2013-07-02 04:52:00,59.0,56.0,-100.00,North,-999,0.0,0.0,89,-99.99,,,-99.99,,2013-07-02 11:52:00,
2013-07-02 05:11:00,59.0,56.0,-100.00,North,-999,0.0,0.0,89,-99.99,,,-99.99,,2013-07-02 12:11:00,
2013-07-02 05:33:00,59.0,56.0,-100.00,North,-999,0.0,0.0,90,-99.99,,,-99.99,,2013-07-02 12:33:00,
2013-07-02 05:43:00,59.0,56.0,-100.00,North,-999,0.0,0.0,91,-99.99,,,-99.99,,2013-07-02 12:43:00,
2013-07-02 05:52:00,59.0,57.0,-100.00,North,-999,0.0,0.0,92,-99.99,,,-99.99,,2013-07-02 12:52:00,
2013-07-02 06:11:00,59.0,57.0,-100.00,North,-999,0.0,0.0,92,-99.99,,,-99.99,,2013-07-02 13:11:00,
2013-07-02 06:22:00,59.0,56.0,-100.00,North,-999,0.0,0.0,92,-99.99,,,-99.99,,2013-07-02 13:22:00,
2013-07-02 06:34:00,59.0,56.0,-100.00,North,-999,0.0,0.0,92,-99.99,,,-99.99,,2013-07-02 13:34:00,
2013-07-02 06:43:00,59.0,57.0,-100.00,North,-999,0.0,0.0,93,-99.99,,,-99.99,,2013-07-02 13:43:00,
2013-07-02 06:52:00,59.0,57.0,-100.00,North,-999,0.0,0.0,93,-99.99,,,-99.99,,2013-07-02 13:52:00,
2013-07-02 07:11:00,61.0,59.0,-100.00,North,-999,0.0,0.0,93,-99.99,,,-99.99,,2013-07-02 14:11:00,
2013-07-02 07:22:00,63.0,60.0,-100.00,North,-999,0.0,0.0,88,-99.99,,,-99.99,,2013-07-02 14:22:00,
2013-07-02 07:43:00,66.0,59.0,-100.00,North,-999,0.0,0.0,79,-99.99,,,-99.99,,2013-07-02 14:43:00,
2013-07-02 07:53:00,68.0,59.0,-100.00,North,-999,0.0,0.0,73,-99.99,,,-99.99,,2013-07-02 14:53:00,
2013-07-02 08:11:00,69.0,59.0,-100.00,North,-999,0.0,0.0,70,-99.99,,,-99.99,,2013-07-02 15:11:00,
2013-07-02 08:44:00,70.0,59.0,-100.00,North,-999,0.0,0.0,67,-99.99,,,-99.99,,2013-07-02 15:44:00,
2013-07-02 08:53:00,71.0,59.0,-100.00,North,-999,0.0,0.0,64,-99.99,,,-99.99,,2013-07-02 15:53:00,
2013-07-02 09:11:00,72.0,59.0,-100.00,North,-999,0.0,0.0,62,-99.99,,,-99.99,,2013-07-02 16:11:00,
2013-07-02 09:33:00,74.0,57.0,-100.00,North,-999,0.0,0.0,56,-99.99,,,-99.99,,2013-07-02 16:33:00,
2013-07-02 09:43:00,76.0,57.0,-100.00,North,-999,0.0,0.0,52,-99.99,,,-99.99,,2013-07-02 16:43:00,
2013-07-02 10:01:00,83.0,54.0,-100.00,North,-999,0.0,0.0,37,-99.99,,,-99.99,,2013-07-02 17:01:00,
2013-07-02 10:02:00,77.0,57.0,-100.00,North,-999,0.0,0.0,49,-99.99,,,-99.99,,2013-07-02 17:02:00,
2013-07-02 10:11:00,79.0,56.0,-100.00,North,-999,0.0,0.0,44,-99.99,,,-99.99,,2013-07-02 17:11:00,
2013-07-02 10:33:00,82.0,56.0,-100.00,North,-999,0.0,0.0,41,-99.99,,,-99.99,,2013-07-02 17:33:00,
2013-07-02 10:43:00,83.0,54.0,-100.00,North,-999,0.0,0.0,37,-99.99,,,-99.99,,2013-07-02 17:43:00,
2013-07-02 10:53:00,83.0,54.0,-100.00,North,-999,0.0,0.0,37,-99.99,,,-99.99,,2013-07-02 17:53:00,
2013-07-02 11:23:00,87.0,54.0,-100.00,North,-999,0.0,0.0,33,-99.99,,,-99.99,,2013-07-02 18:23:00,
2013-07-02 11:34:00,88.0,54.0,-100.00,North,-999,0.0,0.0,31,-99.99,,,-99.99,,2013-07-02 18:34:00,
2013-07-02 11:43:00,88.0,53.0,-100.00,North,-999,0.0,0.0,30,-99.99,,,-99.99,,2013-07-02 18:43:00,
2013-07-02 11:53:00,88.0,53.0,-100.00,North,-999,0.0,0.0,30,-99.99,,,-99.99,,2013-07-02 18:53:00,
2013-07-02 12:01:00,90.0,54.0,-100.00,North,-999,0.0,0.0,29,-99.99,,,-99.99,,2013-07-02 19:01:00,
2013-07-02 12:22:00,91.0,52.0,-100.00,North,-999,0.0,0.0,27,-99.99,,,-99.99,,2013-07-02 19:22:00,
2013-07-02 12:34:00,92.0,54.0,-100.00,North,-999,0.0,0.0,28,-99.99,,,-99.99,,2013-07-02 19:34:00,
2013-07-02 12:43:00,93.0,53.0,-100.00,North,-999,0.0,0.0,26,-99.99,,,-99.99,,2013-07-02 19:43:00,
2013-07-02 12:53:00,93.0,53.0,-100.00,North,-999,0.0,0.0,26,-99.99,,,-99.99,,2013-07-02 19:53:00,
2013-07-02 13:01:00,93.0,52.0,-100.00,North,-999,0.0,0.0,25,-99.99,,,-99.99,,2013-07-02 20:01:00,
2013-07-02 13:11:00,93.0,51.0,-100.00,North,-999,0.0,0.0,24,-99.99,,,-99.99,,2013-07-02 20:11:00,
2013-07-02 13:22:00,93.0,51.0,-100.00,North,-999,0.0,0.0,24,-99.99,,,-99.99,,2013-07-02 20:22:00,
2013-07-02 13:33:00,95.0,52.0,-100.00,North,-999,0.0,0.0,23,-99.99,,,-99.99,,2013-07-02 20:33:00,
2013-07-02 13:43:00,95.0,51.0,-100.00,North,-999,0.0,0.0,22,-99.99,,,-99.99,,2013-07-02 20:43:00,
2013-07-02 13:52:00,95.0,51.0,-100.00,North,-999,0.0,0.0,22,-99.99,,,-99.99,,2013-07-02 20:52:00,
2013-07-02 14:02:00,96.0,50.0,-100.00,North,-999,0.0,0.0,21,-99.99,,,-99.99,,2013-07-02 21:02:00,
2013-07-02 14:22:00,96.0,49.0,-100.00,North,-999,0.0,0.0,20,-99.99,,,-99.99,,2013-07-02 21:22:00,
2013-07-02 14:43:00,97.0,45.0,-100.00,North,-999,0.0,0.0,17,-99.99,,,-99.99,,2013-07-02 21:43:00,
2013-07-02 14:52:00,97.0,45.0,-100.00,North,-999,0.0,0.0,17,-99.99,,,-99.99,,2013-07-02 21:52:00,
2013-07-02 15:01:00,97.0,50.0,-100.00,North,-999,0.0,0.0,20,-99.99,,,-99.99,,2013-07-02 22:01:00,
2013-07-02 15:11:00,97.0,50.0,-100.00,North,-999,0.0,0.0,20,-99.99,,,-99.99,,2013-07-02 22:11:00,
2013-07-02 15:22:00,97.0,51.0,-100.00,North,-999,0.0,0.0,21,-99.99,,,-99.99,,2013-07-02 22:22:00,
2013-07-02 15:33:00,97.0,51.0,-100.00,North,-999,0.0,0.0,21,-99.99,,,-99.99,,2013-07-02 22:33:00,
2013-07-02 15:43:00,97.0,50.0,-100.00,North,-999,0.0,0.0,20,-99.99,,,-99.99,,2013-07-02 22:43:00,
2013-07-02 15:53:00,97.0,50.0,-100.00,North,-999,0.0,0.0,20,-99.99,,,-99.99,,2013-07-02 22:53:00,
2013-07-02 16:01:00,97.0,47.0,-100.00,North,-999,0.0,0.0,18,-99.99,,,-99.99,,2013-07-02 23:01:00,
2013-07-02 16:11:00,96.0,44.0,-100.00,North,-999,0.0,0.0,17,-99.99,,,-99.99,,2013-07-02 23:11:00,
2013-07-02 16:22:00,96.0,44.0,-100.00,North,-999,0.0,0.0,17,-99.99,,,-99.99,,2013-07-02 23:22:00,
2013-07-02 16:33:00,97.0,45.0,-100.00,North,-999,0.0,0.0,17,-99.99,,,-99.99,,2013-07-02 23:33:00,
2013-07-02 16:44:00,97.0,45.0,-100.00,North,-999,0.0,0.0,17,-99.99,,,-99.99,,2013-07-02 23:44:00,
2013-07-02 16:52:00,97.0,45.0,-100.00,North,-999,0.0,0.0,17,-99.99,,,-99.99,,2013-07-02 23:52:00,
2013-07-02 17:01:00,97.0,45.0,-100.00,North,-999,0.0,0.0,17,-99.99,,,-99.99,,2013-07-03 00:01:00,
2013-07-02 17:11:00,97.0,45.0,-100.00,North,-999,0.0,0.0,17,-99.99,,,-99.99,,2013-07-03 00:11:00,
2013-07-02 17:22:00,95.0,45.0,-100.00,North,-999,0.0,0.0,18,-99.99,,,-99.99,,2013-07-03 00:22:00,
2013-07-02 17:33:00,96.0,46.0,-100.00,North,-999,0.0,0.0,18,-99.99,,,-99.99,,2013-07-03 00:33:00,
2013-07-02 17:52:00,95.0,46.0,-100.00,North,-999,0.0,0.0,19,-99.99,,,-99.99,,2013-07-03 00:52:00,
2013-07-02 18:01:00,95.0,46.0,-100.00,North,-999,0.0,0.0,19,-99.99,,,-99.99,,2013-07-03 01:01:00,
2013-07-02 18:11:00,95.0,46.0,-100.00,North,-999,0.0,0.0,19,-99.99,,,-99.99,,2013-07-03 01:11:00,
2013-07-02 18:22:00,94.0,45.0,-100.00,North,-999,0.0,0.0,19,-99.99,,,-99.99,,2013-07-03 01:22:00,
2013-07-02 18:33:00,93.0,47.0,-100.00,North,-999,0.0,0.0,21,-99.99,,,-99.99,,2013-07-03 01:33:00,
2013-07-02 18:42:00,92.0,46.0,-100.00,North,-999,0.0,0.0,21,-99.99,,,-99.99,,2013-07-03 01:42:00,
2013-07-02 18:58:00,92.0,46.0,-100.00,North,-999,0.0,0.0,21,-99.99,,,-99.99,,2013-07-03 01:58:00,
2013-07-02 19:02:00,91.0,47.0,-100.00,North,-999,0.0,0.0,22,-99.99,,,-99.99,,2013-07-03 02:02:00,
2013-07-02 19:12:00,89.0,46.0,-100.00,North,-999,0.0,0.0,22,-99.99,,,-99.99,,2013-07-03 02:12:00,
2013-07-02 19:24:00,89.0,46.0,-100.00,North,-999,0.0,0.0,22,-99.99,,,-99.99,,2013-07-03 02:24:00,
2013-07-02 19:35:00,88.0,47.0,-100.00,North,-999,0.0,0.0,24,-99.99,,,-99.99,,2013-07-03 02:35:00,
2013-07-02 19:43:00,86.0,46.0,-100.00,North,-999,0.0,0.0,25,-99.99,,,-99.99,,2013-07-03 02:43:00,
2013-07-02 20:02:00,86.0,47.0,-100.00,North,-999,0.0,0.0,26,-99.99,,,-99.99,,2013-07-03 03:02:00,
2013-07-02 20:12:00,84.0,46.0,-100.00,North,-999,0.0,0.0,27,-99.99,,,-99.99,,2013-07-03 03:12:00,
2013-07-02 20:25:00,84.0,46.0,-100.00,North,-999,0.0,0.0,27,-99.99,,,-99.99,,2013-07-03 03:25:00,
2013-07-02 20:35:00,83.0,46.0,-100.00,North,-999,0.0,0.0,28,-99.99,,,-99.99,,2013-07-03 03:35:00,
2013-07-02 20:58:00,81.0,46.0,-100.00,North,-999,0.0,0.0,29,-99.99,,,-99.99,,2013-07-03 03:58:00,
2013-07-02 21:01:00,80.0,46.0,-100.00,North,-999,0.0,0.0,31,-99.99,,,-99.99,,2013-07-03 04:01:00,
2013-07-02 21:11:00,80.0,46.0,-100.00,North,-999,0.0,0.0,31,-99.99,,,-99.99,,2013-07-03 04:11:00,
2013-07-02 21:22:00,79.0,47.0,-100.00,North,-999,0.0,0.0,33,-99.99,,,-99.99,,2013-07-03 04:22:00,
2013-07-02 21:33:00,78.0,47.0,-100.00,North,-999,0.0,0.0,34,-99.99,,,-99.99,,2013-07-03 04:33:00,
2013-07-02 21:52:00,77.0,48.0,-100.00,North,-999,0.0,0.0,36,-99.99,,,-99.99,,2013-07-03 04:52:00,
2013-07-02 22:01:00,76.0,49.0,-100.00,North,-999,0.0,0.0,39,-99.99,,,-99.99,,2013-07-03 05:01:00,
2013-07-02 22:11:00,76.0,49.0,-100.00,North,-999,0.0,0.0,39,-99.99,,,-99.99,,2013-07-03 05:11:00,
2013-07-02 22:23:00,75.0,51.0,-100.00,North,-999,0.0,0.0,43,-99.99,,,-99.99,,2013-07-03 05:23:00,
2013-07-02 22:34:00,75.0,52.0,-100.00,North,-999,0.0,0.0,45,-99.99,,,-99.99,,2013-07-03 05:34:00,
2013-07-02 22:44:00,75.0,53.0,-100.00,North,-999,0.0,0.0,46,-99.99,,,-99.99,,2013-07-03 05:44:00,
2013-07-02 22:58:00,75.0,53.0,-100.00,North,-999,0.0,0.0,46,-99.99,,,-99.99,,2013-07-03 05:58:00,
2013-07-02 23:12:00,74.0,53.0,-100.00,North,-999,0.0,0.0,48,-99.99,,,-99.99,,2013-07-03 06:12:00,
2013-07-02 23:35:00,72.0,53.0,-100.00,North,-999,0.0,0.0,51,-99.99,,,-99.99,,2013-07-03 06:35:00,
2013-07-02 23:45:00,73.0,54.0,-100.00,North,-999,0.0,0.0,52,-99.99,,,-99.99,,2013-07-03 06:45:00,
2013-07-02 23:56:00,73.0,54.0,-100.00,North,-999,0.0,0.0,52,-99.99,,,-99.99,,2013-07-03 06:56:00,